Location: *
(45.0500°N, 12.0500°E)
Time: 00:35:29
(UTC+00:00)

Cosmos 962 Rocket - Pass Details

Date: 09 April 2020
Orbit: 950 x 1000 km, 82.9° (Epoch: 30 May)

Event Time Altitude Azimuth Distance (km) Brightness Sun altitude
Rises 19:19:50 0° 351° (N) 3,653 8.1 -15.6°
Reaches altitude 10° 19:22:21 10° 352° (N) 2,698 7.3 -16.0°
Maximum altitude 19:28:32 86° 83° (E) 961 4.4 -16.9°
Enters shadow 19:34:10 12° 172° (S) 2,489 6.3 -17.8°
